Weather History for Glenwood, MN

Change the Weather History Date:

Thursday, May 8, 2014

  Actual Average Record
Temperature  
Mean Temperature 50 °F -  
Max Temperature 53 °F 67 °F 87 °F (1970)
Min Temperature 46 °F 42 °F 24 °F (1955)
Degree Days  
Heating Degree Days 16    
Moisture  
Dew Point 48 °F    
Average Humidity 91    
Maximum Humidity 100    
Minimum Humidity 76    
Precipitation  
Precipitation 0.46 in - - ()
Sea Level Pressure  
Sea Level Pressure 29.67 in    
Wind  
Wind Speed 11 mph (NNE)    
Max Wind Speed 28 mph    
Max Gust Speed 34 mph    
Visibility 8 miles    
Events Rain , Thunderstorm    
Averages and records for this station are not official NWS values.
T = Trace of Precipitation, MM = Missing Value Source: NWS Daily Summary

Daily Weather History Graph

Daily Weather History Graph

Search for Another Location

Airport:

Trip Planner

Search our weather history database for the weather conditions in past years. The results will help you decide how hot, cold, wet, or windy it might be!

Date:

Astronomy

May. 08, 2014 Rise Set
Actual Time 5:59 AM CDT 8:37 PM CDT
Civil Twilight 5:25 AM CDT 9:11 PM CDT
Nautical Twilight 4:42 AM CDT 9:54 PM CDT
Astronomical Twilight 3:53 AM CDT 10:43 PM CDT
Moon 2:20 PM CDT (5/8) 2:50 AM CDT (5/8)
Length of Visible Light 15h 46m
Length of Day
14h 38m
Waxing Gibbous, 65% of the Moon is Illuminated
May 8
Waxing Gibbous
May 14
Full
May 21
Last Quarter
May 28
New
Jun 5
First Quarter

Hourly Weather History & Observations

Time (CDT) Temp. Windchill Dew Point Humidity Pressure Visibility Wind Dir Wind Speed Gust Speed Precip Events Conditions
12:13 AM 51.8 °F - 46.4 °F 82% 29.75 in 10.0 mi NE 10.4 mph - N/A   Clear
12:34 AM 51.8 °F - 44.6 °F 76% 29.72 in 10.0 mi NE 11.5 mph - N/A   Clear
12:53 AM 51.8 °F - 44.6 °F 76% 29.72 in 10.0 mi NE 13.8 mph - N/A   Clear
1:13 AM 51.8 °F - 44.6 °F 76% 29.71 in 10.0 mi NE 10.4 mph - N/A   Clear
2:13 AM 48.2 °F - 42.8 °F 82% 29.67 in 10.0 mi NNE 13.8 mph - N/A   Clear
2:33 AM 50.0 °F - 42.8 °F 76% 29.70 in 10.0 mi NE 10.4 mph - N/A   Clear
2:53 AM 48.2 °F - 42.8 °F 82% 29.70 in 10.0 mi NE 13.8 mph - N/A Thunderstorm Thunderstorm
3:13 AM 48.2 °F - 44.6 °F 87% 29.82 in 7.0 mi WSW 27.6 mph 34.5 mph 0.01 in Rain , Thunderstorm Thunderstorms and Rain
3:33 AM 48.2 °F - 46.4 °F 93% 29.76 in 7.0 mi NNW 8.1 mph - 0.38 in Rain , Thunderstorm Heavy Thunderstorms and Rain
3:54 AM 48.2 °F - 46.4 °F 93% 29.74 in 7.0 mi NNW 10.4 mph - 0.41 in Rain , Thunderstorm Rain
4:13 AM 48.2 °F - 46.4 °F 93% 29.72 in 10.0 mi NW 10.4 mph - 0.01 in   Light Drizzle
4:33 AM 48.2 °F - 46.4 °F 93% 29.71 in 7.0 mi North 11.5 mph - 0.01 in   Clear
4:54 AM 48.2 °F - 46.4 °F 93% 29.70 in 7.0 mi North 12.7 mph 16.1 mph 0.01 in   Clear
5:13 AM 48.2 °F - 46.4 °F 93% 29.69 in 7.0 mi NNE 13.8 mph - N/A   Clear
5:33 AM 48.2 °F - 46.4 °F 93% 29.68 in 7.0 mi NE 12.7 mph 20.7 mph N/A   Clear
5:53 AM 46.4 °F 41.9 °F 46.4 °F 100% 29.69 in 7.0 mi ENE 9.2 mph - N/A   Clear
6:13 AM 48.2 °F - 46.4 °F 93% 29.73 in 10.0 mi East 5.8 mph - N/A   Scattered Clouds
6:33 AM 48.2 °F - 46.4 °F 93% 29.76 in 10.0 mi South 3.5 mph - N/A   Mostly Cloudy
6:53 AM 48.2 °F - 46.4 °F 93% 29.74 in 7.0 mi Calm Calm - N/A Thunderstorm Overcast
7:13 AM 48.2 °F - 46.4 °F 93% 29.74 in 7.0 mi Calm Calm - N/A   Mostly Cloudy
7:34 AM 48.2 °F - 46.4 °F 93% 29.77 in 7.0 mi West 4.6 mph - N/A   Mostly Cloudy
7:53 AM 48.2 °F - 48.2 °F 100% 29.76 in 7.0 mi NW 5.8 mph - N/A   Mostly Cloudy
8:13 AM 50.0 °F - 48.2 °F 94% 29.76 in 10.0 mi WNW 6.9 mph - N/A   Mostly Cloudy
8:34 AM 48.2 °F - 46.4 °F 93% 29.76 in 4.0 mi WNW 5.8 mph - N/A   Overcast
8:53 AM 48.2 °F - 48.2 °F 100% 29.74 in 5.0 mi NNW 6.9 mph - N/A   Overcast
9:13 AM 48.2 °F - 48.2 °F 100% 29.70 in 5.0 mi North 9.2 mph - N/A Rain Light Rain
9:33 AM 50.0 °F - 48.2 °F 94% 29.70 in 7.0 mi NNE 11.5 mph - N/A   Overcast
10:14 AM 51.8 °F - 48.2 °F 88% 29.69 in 10.0 mi ENE 17.3 mph - N/A   Overcast
10:33 AM 51.8 °F - 48.2 °F 88% 29.71 in 10.0 mi ENE 12.7 mph - N/A   Overcast
10:53 AM 51.8 °F - 50.0 °F 94% 29.72 in 10.0 mi ENE 9.2 mph - N/A   Overcast
11:14 AM 51.8 °F - 48.2 °F 88% 29.73 in 10.0 mi East 6.9 mph - N/A   Overcast
11:33 AM 51.8 °F - 48.2 °F 88% 29.72 in 10.0 mi NE 8.1 mph - N/A   Overcast
11:53 AM 51.8 °F - 48.2 °F 88% 29.75 in 10.0 mi East 3.5 mph - N/A   Overcast
12:13 PM 51.8 °F - 48.2 °F 88% 29.74 in 7.0 mi ENE 4.6 mph - N/A   Overcast
12:33 PM 51.8 °F - 50.0 °F 94% 29.71 in 7.0 mi NNE 8.1 mph - N/A   Overcast
1:13 PM 53.6 °F - 51.8 °F 94% 29.67 in 5.0 mi NNE 12.7 mph - N/A   Overcast
1:33 PM 51.8 °F - 50.0 °F 94% 29.68 in 4.0 mi North 10.4 mph - N/A   Overcast
1:53 PM 51.8 °F - 48.2 °F 88% 29.69 in 5.0 mi North 10.4 mph - N/A   Overcast
2:13 PM 51.8 °F - 48.2 °F 88% 29.67 in 4.0 mi North 13.8 mph - N/A Rain Light Rain
2:33 PM 51.8 °F - 48.2 °F 88% 29.66 in 4.0 mi NNE 12.7 mph - 0.01 in Rain , Thunderstorm Light Thunderstorms and Rain
2:53 PM 50.0 °F - 48.2 °F 94% 29.68 in 7.0 mi North 13.8 mph - 0.01 in   Overcast
3:13 PM 50.0 °F - 48.2 °F 94% 29.67 in 7.0 mi North 15.0 mph - N/A   Light Drizzle
3:33 PM 51.8 °F - 50.0 °F 94% 29.64 in 10.0 mi North 16.1 mph 20.7 mph N/A   Overcast
4:13 PM 51.8 °F - 50.0 °F 94% 29.62 in 10.0 mi NE 21.9 mph 25.3 mph N/A   Scattered Clouds
4:34 PM 51.8 °F - 50.0 °F 94% 29.61 in 10.0 mi NE 18.4 mph - N/A   Mostly Cloudy
4:53 PM 51.8 °F - 48.2 °F 88% 29.62 in 10.0 mi NE 13.8 mph 19.6 mph N/A Rain Light Rain
5:13 PM 51.8 °F - 50.0 °F 94% 29.61 in 10.0 mi NE 16.1 mph - N/A   Overcast
5:34 PM 51.8 °F - 50.0 °F 94% 29.61 in 10.0 mi NE 11.5 mph - N/A   Overcast
5:53 PM 51.8 °F - 50.0 °F 94% 29.61 in 10.0 mi NE 15.0 mph 19.6 mph N/A   Overcast
6:13 PM 53.6 °F - 50.0 °F 88% 29.60 in 10.0 mi NNE 13.8 mph - N/A   Mostly Cloudy
6:33 PM 53.6 °F - 50.0 °F 88% 29.60 in 10.0 mi NE 15.0 mph - N/A   Mostly Cloudy
7:14 PM 51.8 °F - 50.0 °F 94% 29.52 in 10.0 mi NNE 21.9 mph - N/A Rain , Thunderstorm Light Thunderstorms and Rain
7:33 PM 51.8 °F - 50.0 °F 94% 29.57 in 10.0 mi NE 12.7 mph - 0.01 in   Overcast
7:53 PM 51.8 °F - 50.0 °F 94% 29.60 in 10.0 mi North 8.1 mph - 0.01 in Thunderstorm Thunderstorm
8:14 PM 51.8 °F - 50.0 °F 94% 29.57 in 10.0 mi ENE 11.5 mph - N/A Thunderstorm Overcast
8:33 PM 51.8 °F - 50.0 °F 94% 29.53 in 10.0 mi ENE 17.3 mph - 0.01 in Rain Light Rain
8:53 PM 51.8 °F - 50.0 °F 94% 29.55 in 10.0 mi NE 8.1 mph - 0.01 in   Overcast
9:13 PM 51.8 °F - 50.0 °F 94% 29.56 in 7.0 mi NE 8.1 mph - N/A   Overcast
9:33 PM 51.8 °F - 50.0 °F 94% 29.56 in 7.0 mi North 3.5 mph - N/A Thunderstorm Overcast
9:53 PM 51.8 °F - 50.0 °F 94% 29.56 in 7.0 mi Calm Calm - N/A   Overcast
10:13 PM 51.8 °F - 50.0 °F 94% 29.57 in 7.0 mi NW 4.6 mph - N/A Thunderstorm Overcast
10:33 PM 51.8 °F - 50.0 °F 94% 29.55 in 5.0 mi North 6.9 mph - N/A Rain , Thunderstorm Rain
10:53 PM 51.8 °F - 50.0 °F 94% 29.55 in 7.0 mi NNW 5.8 mph - 0.01 in   Overcast
11:13 PM 51.8 °F - 50.0 °F 94% 29.55 in 5.0 mi WNW 4.6 mph - N/A Rain Light Rain
11:34 PM 51.8 °F - 50.0 °F 94% 29.53 in 3.0 mi NW 8.1 mph - N/A Rain Light Rain
11:53 PM 51.8 °F - 50.0 °F 94% 29.54 in 3.0 mi NW 8.1 mph - N/A   Overcast